Home > Time Zones > World Clock > Weather > Canada > Ajax > Past weeks

Flag for Canada Weather past 2 weeks in Ajax, Ontario, Canada

Now
48 °F

Passing clouds.


Feels Like: 45 °F
Forecast: 41 / 59 °F
Wind: 8 mph from North

Location: Toronto Buttonville

Current Time: Oct 22, 2014 at 9:01:24 PM

Latest Report: Oct 22, 2014 at 8:00 PM


Visibility: 15 mi

Pressure: 30.24 "Hg

Humidity: 76%

Dew point: 41 °F

Location of AjaxLocation

Historic Weather in Ajax — Graph

°F

Ajax temperature yesterday

Maximum temperature yesterday: 50 °F (at 12:00 AM)
Minimum temperature yesterday: 43 °F (at 8:00 PM)
Average temperature yesterday: 47 °F

Past Weeks' High & Low Weather Summary

 TemperatureHumidityPressure
High73 °F (Oct 14, 4:00 PM)100% (Oct 7, 8:00 PM)30.31 "Hg (Oct 7, 8:00 PM)
Low32 °F (Oct 12, 6:00 AM)41% (Oct 13, 7:00 PM)29.48 "Hg (Oct 18, 12:00 AM)
Average50 °F81%29.93 "Hg
* Reported Oct 7 7:00 PM — Oct 22 7:00 PM, Ajax, Weather by CustomWeather, © 2014

Note: Actual official high and low records may vary slightly from our data, if they occured in-between our weather recording intervals... More about our weather records

Advertising

Ajax weather history for previous 24 hours

 ConditionsComfort  
Time TempWeatherWind HumidityBarometerVisibility
7:00 PM
Oct 22
50 °FPassing clouds.8 mph67%30.24 "Hg15 mi
6:00 PM54 °FPassing clouds.8 mph58%30.24 "Hg15 mi
5:00 PM55 °FPassing clouds.12 mph55%30.24 "Hg15 mi
4:00 PM55 °FScattered clouds.7 mph59%30.24 "Hg15 mi
3:00 PM55 °FScattered clouds.8 mph59%30.24 "Hg15 mi
2:00 PM55 °FScattered clouds.13 mph59%30.25 "Hg15 mi
1:00 PM52 °FPassing clouds.10 mph62%30.27 "Hg15 mi
12:00 PM50 °FPassing clouds.10 mph67%30.29 "Hg15 mi
11:00 AM46 °FPassing clouds.7 mph71%30.29 "Hg15 mi
10:00 AM43 °FPartly sunny.8 mph71%30.29 "Hg15 mi
9:00 AM39 °FPassing clouds.8 mph81%30.28 "Hg15 mi
8:00 AM39 °FPassing clouds.7 mph81%30.27 "Hg15 mi
7:00 AM37 °FPassing clouds.7 mph87%30.25 "Hg15 mi
6:00 AM39 °FPassing clouds.7 mph81%30.23 "Hg15 mi
5:00 AM39 °FPassing clouds.8 mph81%30.23 "Hg15 mi
4:00 AM39 °FPassing clouds.7 mph81%30.21 "Hg15 mi
2:00 AM41 °FPassing clouds.9 mph81%30.19 "Hg15 mi
1:00 AM43 °FMostly cloudy.8 mph81%30.18 "Hg15 mi
12:00 AM43 °FOvercast.8 mph81%30.18 "Hg15 mi
11:00 PM
Oct 21
43 °FLight rain. Mostly cloudy.7 mph87%30.17 "Hg15 mi
10:00 PM43 °FLight rain. Mostly cloudy.13 mph87%30.15 "Hg15 mi
9:49 PMN/ALight rain.12 mphN/AN/A15 mi
9:00 PM43 °FMostly cloudy.14 mph93%30.13 "Hg15 mi
Weather by CustomWeather, © 2014

See weather overviewHow to use our weather pages